Location: Unspecified
(0.0000°N, 0.0000°E)
Time: 13:13:25
(UTC+00:00)

ISS - Visible Passes

Search period start: 27 March 2015 00:00
Search period end: 06 April 2015 00:00
Orbit: 396 x 406 km, 51.6° (Epoch: 27 March)

Date Brightness Start Highest point End Pass type
(mag) Time Alt. Az. Time Alt. Az. Time Alt. Az.
29 Mar -2.6 19:08:55 10° SSW 19:11:41 35° SE 19:11:41 35° SE visible
30 Mar -0.6 19:52:30 10° W 19:54:45 18° NW 19:54:45 18° NW visible
31 Mar -2.5 18:58:12 10° SW 19:01:24 50° NW 19:04:34 10° NNE visible
02 Apr -0.2 18:48:52 10° W 18:50:47 14° NW 18:52:36 10° NNW visible
04 Apr -3.5 05:27:16 10° NW 05:30:27 72° SW 05:33:39 10° SSE visible
05 Apr -1.7 04:35:37 23° N 04:36:56 33° NE 04:39:53 10° ESE visible
